Regional Weather Roundup
Issued by NWS

Home | Current Version | Previous Version | Graphics & Text | Print | Product List | Glossary Off
Versions: 1 2 3 4 5 6 7 8 9 10 11 12 13 14 15 16 17 18 19 20 21 22 23 24 25 26 27 28 29 30 31 32 33 34 35 36 37 38 39 40 41 42 43 44 45 46 47 48 49 50

000
ASUS45 KBOU 230407
RWRCO

WEATHER ROUNDUP FOR COLORADO
NATIONAL WEATHER SERVICE DENVER/BOULDER CO
1000 PM MDT FRI MAY 22 2015

NOTE: "FAIR" INDICATES FEW OR NO CLOUDS BELOW 12000 FEET WITH NO
SIGNIFICANT WEATHER AND/OR OBSTRUCTIONS TO VISIBILITY.

COZ001>005-013-030-031-230500-
...NORTHWEST COLORADO...

CITY           SKY/WX    TMP DP  RH WIND       PRES   REMARKS
CRAIG          MOCLDY    46  40  79 E9        30.00R
HAYDEN         MOCLDY    45  36  70 SE7       30.01R
MEEKER         TSTM      47  40  76 MISG      30.04R
MOUNT WERNER   NOT AVBL
STEAMBOAT SPGS MOCLDY    41  38  88 NE5       30.03R
WALDEN         MOCLDY    36  32  87 SE6       30.06R
$$

COZ006>008-011-230500-
...WEST CENTRAL VALLEYS...

CITY           SKY/WX    TMP DP  RH WIND       PRES   REMARKS
GRAND JUNCTION MOCLDY    51  45  79 NW3       29.94R
MONTROSE       PTCLDY    51  39  63 S15       29.99R
EAGLE          CLOUDY    48  45  87 CALM      30.07R
RIFLE          CLOUDY    50  41  71 SE3       29.98R
DELTA          PTCLDY    53  44  70 MISG      29.97R
NUCLA          MOCLDY    50  37  62 E17       30.00R
$$

COZ017>023-064>068-230500-
...SOUTHWEST COLORADO...

CITY           SKY/WX    TMP DP  RH WIND       PRES   REMARKS
DURANGO        CLOUDY    51  37  58 N9        29.99R
CORTEZ         PTCLDY    49  44  83 S5        29.97R
PAGOSA SPRINGS CLOUDY    45  38  76 NE5       30.06R
TELLURIDE      LGT RAIN  38  36  92 CALM      30.12R
WOLF CREEK PAS NOT AVBL
$$

COZ009-010-012-014-032>034-037-058>063-230500-
...CENTRAL COLORADO...

CITY           SKY/WX    TMP DP  RH WIND       PRES   REMARKS
ASPEN          LGT RAIN  45  37  73 VRB7      30.06R
BUENA VISTA    MOCLDY    46  33  59 NW6       30.07R
COPPER MTN     CLOUDY    34  27  75 S22G28    30.21R WCI  22
BERTHOUD PASS  SNOW      27  19  74 SE7       30.25R VSB<1/4 WCI  19
COTTONWOOD PAS MOCLDY    43  28  56 W14       30.13S
GUNNISON       MOCLDY    46  32  57 NW6       30.11R
KREMMLING      LGT RAIN  41  37  87 E8        30.09R
LEADVILLE      CLOUDY    34  33  96 N5        30.14R WCI  30
MONARCH PASS   CLOUDY    32  25  74 S21G30    30.33R WCI  20
SALIDA         CLOUDY    52  33  49 CALM      30.13R
SUNLIGHT       CLOUDY    34  32  93 CALM      30.18R
WILKERSON PASS CLOUDY    32  32 100 S3        30.23S
$$

COZ069>075-230500-
...SAN LUIS VALLEY/SANGRE DE CRISTO MOUNTAINS...

CITY           SKY/WX    TMP DP  RH WIND       PRES   REMARKS
ALAMOSA        CLOUDY    50  34  54 SW8       30.07R
LA VETA PASS   MOCLDY   N/A N/A N/A MISG      30.19R
SAGUACHE       CLOUDY    50  32  50 SW16G23   30.11R
$$

COZ035-036-038>040-230500-
...NORTHERN COLORADO FRONT RANGE...

CITY           SKY/WX    TMP DP  RH WIND       PRES   REMARKS
DENVER INTL AP RAIN      49  47  93 CALM      30.06R FOG
DMNS CITY PARK   N/A     49  48  97 N2        30.06R
AURORA         LGT RAIN  48  48  99 CALM      30.07R
FRONT RANGE AP NOT AVBL
ERIE MUNI ARPT RAIN      50  48  93 CALM      30.06R
BOULDER MUN AP DRIZZLE   50  48  93 CALM      30.05R
CENTENNIAL     LGT RAIN  48  46  93 N3        30.06R FOG
BROOMFIELD     LGT RAIN  50  48  93 CALM      30.07R
FORT COLLINS   CLOUDY    50  45  81 NE3       30.06R
LONGMONT       CLOUDY    52  49  90 CALM      30.07R
$$

COZ041-046-047-076>085-087-088-230500-
...PIKES PEAK/PALMER DIVIDE AND SOUTHERN FOOTHILLS...

CITY           SKY/WX    TMP DP  RH WIND       PRES   REMARKS
COLO. SPRINGS  MOCLDY    50  44  80 N12       30.03R
A. F. ACADEMY  CLOUDY    48  45  88 N13       30.05R
ELLICOTT       NOT AVBL
FALCON         MOCLDY    46  45  95 N13       30.06R
FORT CARSON    MOCLDY    52  47  83 N14       30.00R
LIMON          CLOUDY    50  47  89 N9        30.01R
MONUMENT HILL  NOT AVBL
TRINIDAD       MOCLDY    60  40  47 S26G45    30.00R
$$

COZ042>045-048>051-090-091-230500-
...NORTHEAST COLORADO...

CITY           SKY/WX    TMP DP  RH WIND       PRES   REMARKS
GREELEY ARPT   MOCLDY    48  45  87 E8        30.05R
AKRON          FOG       49  49 100 E9        30.04R VSB 1/4
BURLINGTON     LGT RAIN  54  52  93 SE32G43   29.97F FOG
WRAY           CLOUDY   N/A N/A N/A E9        30.04R
STERLING       CLOUDY    46  46 100 NE7       30.05R FOG
HOLYOKE        NOT AVBL
FORT MORGAN    DRZL/FOG  49  47  95 NE13      30.04S VSB 1/2
$$

COZ086-089-092>099-230500-
...SOUTHEAST COLORADO...

CITY           SKY/WX    TMP DP  RH WIND       PRES   REMARKS
PUEBLO         PTCLDY    56  48  74 N25       29.93R
LA JUNTA       CLEAR     64  50  60 S13       29.91R
LAMAR          CLEAR     60  54  80 S18G29    29.93R
SPRINGFIELD      N/A     56  53  90 S21       30.01R
$$


USA.gov is the U.S. government's official web portal to all federal, state and local government web resources and services.